Simultaneous Nadir Overpasses (SNOs) Predictions

Prediction of SNOs between LANDSAT-8 and TERRA Satellite Orbit:

Table of predicted SNOs for the next 14.0 days since TLE Epoch: 2/25/2025
Index Date (LANDSAT-8) Time (LANDSAT-8) Lat,Lon (LANDSAT-8) SZA (LANDSAT-8 ) Date (TERRA) Time (TERRA) Lat,Lon (TERRA) SZA (TERRA ) Distance(km) Time Diff (sec)
1 03/10/2025 22:25:50 81.84, -91.97 89.85 03/10/2025 22:27:01 81.84, -91.89 89.90 1.37 71
2 03/10/2025 23:15:17 -81.84, 75.56 90.18 03/10/2025 23:16:21 -81.84, 75.57 90.15 0.16 64
3 03/11/2025 00:04:43 81.84,-116.75 89.82 03/11/2025 00:05:41 81.85,-116.88 89.83 2.09 58
4 03/11/2025 00:54:09 -81.84, 51.20 90.16 03/11/2025 00:55:00 -81.84, 51.00 90.16 3.27 51
5 03/11/2025 01:43:36 81.84,-141.54 89.78 03/11/2025 01:44:20 81.84,-141.46 89.82 1.36 44
6 03/11/2025 02:33:02 -81.84, 26.42 90.20 03/11/2025 02:33:39 -81.84, 26.42 90.18 0.43 37
7 03/11/2025 03:22:28 81.84,-165.90 89.80 03/11/2025 03:22:59 81.84,-166.03 89.80 2.05 31



Historial Predications of SNOs between LANDSAT-8 and TERRA
